Location: Tucson
(32.2217°N, 110.9265°W)
Time: 00:06:35
(UTC-07:00)

Envisat - Visible Passes

Search period start: 17 June 2019 00:00
Search period end: 27 June 2019 00:00
Orbit: 764 x 766 km, 98.1° (Epoch: 17 June)

Date Brightness Start Highest point End Pass type
(mag) Time Alt. Az. Time Alt. Az. Time Alt. Az.
19 Jun 5.5 19:54:54 10° SW 19:58:41 21° W 20:02:29 10° NW visible
21 Jun 6.1 20:23:17 10° WSW 20:24:24 11° W 20:25:32 10° W visible
24 Jun 5.8 20:10:21 10° SW 20:13:04 14° W 20:15:47 10° WNW visible
